QPF
0.00 0.00 0.00 0.01 0.01 0.01 0.01 0.01 0.01 0.00 0.01 0.01 0.00 0.00 0.01 0.01 0.01 0.01 0.01 0.01 0.02 0.01 0.02 0.02 0.02 0.03 0.06 0.09 0.10 0.10 0.10 0.09 0.09 0.09 0.09 0.10 0.08 0.07 0.08 0.08 0.08 0.08 0.06 0.06
0.00 0.00 0.00 0.00 0.00 0.01 0.01 0.01 0.01 0.00 0.01 0.01 0.01 0.01 0.01 0.01 0.01 0.02 0.01 0.01 0.02 0.02 0.02 0.03 0.02 0.03 0.03 0.05 0.09 0.10 0.12 0.13 0.11 0.11 0.12 0.11 0.11 0.13 0.12 0.13 0.14 0.14 0.12 0.10
0.00 0.00 0.00 0.00 0.00 0.01 0.01 0.01 0.01 0.01 0.01 0.01 0.01 0.01 0.02 0.01 0.01 0.01 0.01 0.02 0.03 0.04 0.04 0.05 0.05 0.07 0.08 0.08 0.08 0.09 0.12 0.15 0.15 0.13 0.15 0.16 0.15 0.15 0.14 0.15 0.18 0.19 0.15 0.12
0.01 0.01 0.01 0.01 0.01 0.01 0.01 0.01 0.01 0.01 0.01 0.01 0.02 0.03 0.04 0.04 0.03 0.03 0.03 0.03 0.04 0.05 0.06 0.07 0.08 0.08 0.08 0.10 0.12 0.14 0.17 0.18 0.18 0.16 0.13 0.12 0.12 0.11 0.13 0.15 0.18 0.18 0.16 0.15
0.02 0.02 0.01 0.01 0.02 0.02 0.02 0.02 0.02 0.02 0.02 0.03 0.05 0.07 0.07 0.06 0.05 0.05 0.04 0.04 0.05 0.05 0.06 0.07 0.09 0.10 0.10 0.11 0.11 0.12 0.11 0.11 0.11 0.10 0.09 0.09 0.10 0.11 0.12 0.14 0.15 0.16 0.16 0.16
0.02 0.02 0.02 0.02 0.03 0.03 0.03 0.03 0.04 0.04 0.05 0.06 0.07 0.07 0.10 0.08 0.06 0.04 0.03 0.04 0.05 0.05 0.05 0.06 0.07 0.08 0.10 0.11 0.10 0.10 0.09 0.08 0.07 0.07 0.07 0.08 0.10 0.11 0.12 0.11 0.13 0.16 0.17 0.16
0.02 0.03 0.05 0.04 0.04 0.05 0.04 0.03 0.06 0.06 0.06 0.06 0.07 0.06 0.08 0.07 0.05 0.04 0.03 0.04 0.04 0.04 0.03 0.04 0.06 0.06 0.06 0.06 0.06 0.06 0.05 0.04 0.05 0.08 0.10 0.12 0.13 0.14 0.15 0.16 0.20 0.24 0.23 0.20
0.04 0.05 0.06 0.06 0.05 0.06 0.06 0.05 0.07 0.08 0.08 0.08 0.07 0.07 0.07 0.06 0.06 0.04 0.03 0.03 0.02 0.02 0.02 0.02 0.03 0.04 0.04 0.03 0.02 0.02 0.02 0.02 0.02 0.04 0.05 0.08 0.12 0.12 0.12 0.13 0.13 0.16 0.16 0.15
0.09 0.09 0.08 0.08 0.06 0.07 0.07 0.07 0.08 0.10 0.10 0.10 0.11 0.10 0.08 0.07 0.05 0.03 0.02 0.02 0.01 0.01 0.01 0.02 0.02 0.02 0.02 0.01 0.01 0.01 0.01 0.01 0.01 0.01 0.02 0.02 0.03 0.04 0.04 0.04 0.05 0.06 0.07 0.07
0.15 0.14 0.09 0.08 0.09 0.10 0.12 0.11 0.10 0.10 0.12 0.14 0.15 0.11 0.09 0.07 0.04 0.01 0.01 0.01 0.01 0.01 0.01 0.01 0.01 0.01 0.01 0.00 0.00 0.00 0.00 0.00 0.00 0.01 0.02 0.03 0.04 0.06 0.06 0.05 0.05 0.05 0.05 0.05
0.11 0.12 0.10 0.09 0.12 0.16 0.19 0.17 0.14 0.13 0.12 0.11 0.10 0.10 0.08 0.06 0.03 0.01 0.01 0.00 0.00 0.00 0.00 0.00 0.00 0.00 0.00 0.00 0.00 0.00 0.00 0.00 0.00 0.00 0.01 0.01 0.01 0.03 0.05 0.05 0.05 0.05 0.04 0.03
0.13 0.11 0.12 0.14 0.17 0.17 0.19 0.19 0.16 0.14 0.12 0.11 0.09 0.07 0.04 0.02 0.01 0.01 0.00 0.00 0.00 0.00 0.00 0.00 0.00 0.00 0.00 0.00 0.00 0.00 0.00 0.00 0.00 0.00 0.00 0.00 0.00 0.00 0.01 0.02 0.03 0.02 0.02 0.02
0.13 0.11 0.13 0.16 0.18 0.18 0.15 0.14 0.13 0.12 0.10 0.08 0.05 0.03 0.02 0.01 0.01 0.00 0.00 0.00 0.00 0.00 0.00 0.00 0.00 0.00 0.00 0.00 0.00 0.00 0.00 0.00 0.00 0.00 0.00 0.00 0.00 0.00 0.00 0.00 0.00 0.00 0.00 0.00
0.13 0.12 0.15 0.17 0.16 0.17 0.15 0.11 0.09 0.09 0.09 0.08 0.05 0.02 0.01 0.01 0.00 0.00 0.00 0.00 0.00 0.00 0.00 0.00 0.00 0.00 0.00 0.00 0.00 0.00 0.00 0.00 0.00 0.00 0.00 0.00 0.00 0.00 0.00 0.00 0.00 0.00 0.00 0.00
0.11 0.12 0.12 0.09 0.10 0.10 0.09 0.07 0.06 0.07 0.07 0.05 0.04 0.02 0.01 0.00 0.00 0.00 0.00 0.00 0.00 0.00 0.00 0.00 0.00 0.00 0.00 0.00 0.00 0.00 0.00 0.00 0.00 0.00 0.00 0.00 0.00 0.00 0.00 0.00 0.00 0.00 0.00 0.00
0.06 0.07 0.06 0.05 0.05 0.06 0.05 0.05 0.04 0.03 0.03 0.02 0.01 0.00 0.00 0.00 0.00 0.00 0.00 0.00 0.00 0.00 0.00 0.00 0.00 0.00 0.00 0.00 0.00 0.00 0.00 0.00 0.00 0.00 0.00 0.00 0.00 0.00 0.00 0.00 0.00 0.00 0.00 0.00
0.05 0.05 0.05 0.04 0.03 0.03 0.04 0.05 0.04 0.03 0.01 0.00 0.00 0.00 0.00 0.00 0.00 0.00 0.00 0.00 0.00 0.00 0.00 0.00 0.00 0.00 0.00 0.00 0.00 0.00 0.00 0.00 0.00 0.00 0.00 0.00 0.00 0.00 0.00 0.00 0.00 0.00 0.00 0.00
0.05 0.04 0.03 0.03 0.02 0.02 0.03 0.02 0.02 0.01 0.00 0.00 0.00 0.00 0.00 0.00 0.00 0.00 0.00 0.00 0.00 0.00 0.00 0.00 0.00 0.00 0.00 0.00 0.00 0.00 0.00 0.00 0.00 0.00 0.00 0.00 0.00 0.00 0.00 0.00 0.00 0.00 0.00 0.00
0.02 0.02 0.01 0.02 0.02 0.02 0.01 0.01 0.01 0.00 0.00 0.00 0.00 0.00 0.00 0.00 0.00 0.00 0.00 0.00 0.00 0.00 0.00 0.00 0.00 0.00 0.00 0.00 0.00 0.00 0.00 0.00 0.00 0.00 0.00 0.00 0.00 0.00 0.00 0.00 0.00 0.00 0.00 0.00
0.01 0.01 0.01 0.01 0.01 0.01 0.01 0.00 0.00 0.00 0.00 0.01 0.01 0.00 0.00 0.00 0.00 0.00 0.00 0.00 0.00 0.00 0.00 0.00 0.00 0.00 0.00 0.00 0.00 0.00 0.00 0.00 0.00 0.00 0.00 0.00 0.00 0.00 0.00 0.00 0.00 0.00 0.00 0.00
0.01 0.01 0.01 0.00 0.00 0.00 0.00 0.00 0.00 0.00 0.00 0.00 0.00 0.00 0.00 0.00 0.00 0.00 0.00 0.00 0.00 0.00 0.00 0.00 0.00 0.00 0.00 0.00 0.00 0.00 0.00 0.00 0.00 0.00 0.00 0.00 0.00 0.00 0.00 0.00 0.00 0.00 0.00 0.00
0.01 0.01 0.00 0.00 0.00 0.00 0.00 0.00 0.00 0.00 0.00 0.00 0.00 0.00 0.00 0.00 0.00 0.00 0.00 0.01 0.00 0.00 0.00 0.00 0.00 0.00 0.00 0.00 0.00 0.00 0.00 0.00 0.00 0.00 0.00 0.00 0.00 0.00 0.00 0.00 0.00 0.00 0.00 0.00
0.00 0.00 0.00 0.00 0.00 0.00 0.00 0.00 0.00 0.00 0.00 0.00 0.00 0.00 0.00 0.00 0.00 0.00 0.00 0.00 0.00 0.01 0.01 0.01 0.01 0.01 0.01 0.01 0.01 0.00 0.01 0.01 0.01 0.01 0.00 0.00 0.00 0.00 0.00 0.00 0.00 0.00 0.00 0.00
0.00 0.00 0.00 0.00 0.00 0.00 0.00 0.00 0.00 0.00 0.00 0.00 0.00 0.00 0.00 0.00 0.00 0.00 0.01 0.01 0.01 0.01 0.01 0.01 0.01 0.00 0.00 0.00 0.00 0.00 0.00 0.00 0.00 0.00 0.00 0.00 0.00 0.00 0.00 0.00 0.00 0.00 0.00 0.00
0.01 0.00 0.00 0.00 0.00 0.00 0.00 0.00 0.00 0.00 0.00 0.00 0.00 0.00 0.00 0.00 0.00 0.01 0.01 0.01 0.01 0.01 0.01 0.00 0.00 0.00 0.00 0.00 0.01 0.01 0.01 0.00 0.00 0.00 0.00 0.00 0.00 0.00 0.00 0.00 0.00 0.00 0.00 0.00
0.00 0.00 0.01 0.01 0.01 0.01 0.00 0.00 0.00 0.00 0.00 0.00 0.00 0.00 0.00 0.00 0.00 0.00 0.00 0.00 0.00 0.01 0.01 0.00 0.00 0.00 0.00 0.00 0.01 0.01 0.01 0.00 0.00 0.00 0.00 0.00 0.00 0.00 0.00 0.00 0.00 0.00 0.00 0.00
0.00 0.00 0.01 0.01 0.01 0.00 0.00 0.00 0.00 0.00 0.01 0.00 0.00 0.00 0.00 0.00 0.00 0.00 0.00 0.00 0.00 0.01 0.01 0.01 0.01 0.01 0.01 0.01 0.00 0.00 0.00 0.00 0.00 0.00 0.00 0.00 0.00 0.00 0.00 0.00 0.00 0.00 0.00 0.00
MSLP
1009.30 1009.48 1009.76 1010.10 1010.45 1010.72 1010.85 1010.77 1010.45 1009.92 1009.22 1008.43 1007.66 1007.01 1006.55 1006.35 1006.40 1006.69 1007.15 1007.73 1008.35 1008.95 1009.48 1009.95 1010.35 1010.72 1011.07 1011.45 1011.85 1012.27 1012.69 1013.09 1013.45 1013.75 1013.99 1014.16 1014.31 1014.44 1014.60 1014.80 1015.05 1015.33 1015.65 1015.96
1009.56 1009.58 1009.65 1009.74 1009.83 1009.86 1009.79 1009.60 1009.28 1008.85 1008.33 1007.78 1007.28 1006.88 1006.63 1006.55 1006.65 1006.90 1007.27 1007.69 1008.14 1008.59 1009.01 1009.40 1009.79 1010.19 1010.62 1011.08 1011.56 1012.05 1012.53 1012.95 1013.30 1013.58 1013.77 1013.90 1014.00 1014.11 1014.23 1014.41 1014.64 1014.91 1015.21 1015.51
1009.88 1009.75 1009.60 1009.45 1009.28 1009.09 1008.85 1008.57 1008.25 1007.91 1007.57 1007.26 1007.01 1006.86 1006.81 1006.87 1007.02 1007.24 1007.51 1007.81 1008.11 1008.41 1008.71 1009.04 1009.41 1009.83 1010.31 1010.83 1011.38 1011.93 1012.44 1012.88 1013.22 1013.47 1013.63 1013.73 1013.80 1013.88 1014.00 1014.17 1014.40 1014.67 1014.98 1015.28
1010.24 1009.93 1009.59 1009.21 1008.81 1008.42 1008.04 1007.69 1007.39 1007.14 1006.96 1006.86 1006.85 1006.92 1007.06 1007.25 1007.46 1007.69 1007.90 1008.09 1008.28 1008.47 1008.69 1008.97 1009.31 1009.74 1010.25 1010.82 1011.41 1011.99 1012.51 1012.95 1013.28 1013.51 1013.64 1013.72 1013.78 1013.86 1013.98 1014.17 1014.42 1014.72 1015.04 1015.35
1010.52 1010.06 1009.53 1008.95 1008.38 1007.83 1007.35 1006.95 1006.67 1006.51 1006.48 1006.57 1006.77 1007.04 1007.35 1007.66 1007.96 1008.21 1008.41 1008.56 1008.68 1008.81 1008.98 1009.21 1009.55 1009.97 1010.49 1011.08 1011.68 1012.26 1012.78 1013.21 1013.52 1013.73 1013.86 1013.94 1014.01 1014.11 1014.26 1014.49 1014.77 1015.10 1015.44 1015.76
1010.62 1010.01 1009.32 1008.61 1007.90 1007.26 1006.71 1006.31 1006.07 1006.00 1006.10 1006.36 1006.73 1007.18 1007.65 1008.09 1008.48 1008.80 1009.02 1009.18 1009.29 1009.40 1009.55 1009.78 1010.10 1010.52 1011.03 1011.61 1012.20 1012.77 1013.26 1013.67 1013.97 1014.18 1014.31 1014.41 1014.52 1014.65 1014.86 1015.13 1015.46 1015.82 1016.18 1016.51
1010.44 1009.70 1008.91 1008.10 1007.33 1006.65 1006.11 1005.74 1005.57 1005.60 1005.83 1006.23 1006.75 1007.35 1007.96 1008.53 1009.03 1009.43 1009.73 1009.93 1010.08 1010.21 1010.37 1010.60 1010.92 1011.33 1011.82 1012.36 1012.92 1013.46 1013.93 1014.31 1014.61 1014.82 1014.98 1015.12 1015.27 1015.47 1015.73 1016.05 1016.42 1016.82 1017.19 1017.52
1009.91 1009.09 1008.25 1007.42 1006.67 1006.02 1005.54 1005.25 1005.18 1005.32 1005.68 1006.20 1006.86 1007.59 1008.32 1009.01 1009.62 1010.12 1010.50 1010.78 1010.99 1011.17 1011.36 1011.60 1011.91 1012.30 1012.76 1013.26 1013.78 1014.27 1014.71 1015.08 1015.37 1015.61 1015.81 1016.00 1016.21 1016.48 1016.79 1017.17 1017.57 1017.98 1018.36 1018.67
1009.09 1008.24 1007.41 1006.63 1005.95 1005.41 1005.05 1004.89 1004.94 1005.21 1005.69 1006.33 1007.09 1007.93 1008.76 1009.55 1010.26 1010.85 1011.32 1011.68 1011.97 1012.20 1012.43 1012.68 1012.98 1013.34 1013.76 1014.21 1014.67 1015.12 1015.52 1015.89 1016.19 1016.46 1016.71 1016.97 1017.24 1017.57 1017.94 1018.34 1018.77 1019.18 1019.53 1019.81
1008.08 1007.26 1006.50 1005.84 1005.30 1004.92 1004.72 1004.72 1004.92 1005.33 1005.91 1006.65 1007.50 1008.40 1009.31 1010.18 1010.96 1011.63 1012.18 1012.61 1012.96 1013.24 1013.50 1013.76 1014.04 1014.36 1014.72 1015.11 1015.52 1015.92 1016.30 1016.66 1016.99 1017.30 1017.60 1017.92 1018.26 1018.63 1019.04 1019.46 1019.88 1020.27 1020.59 1020.82
1007.06 1006.32 1005.69 1005.19 1004.84 1004.65 1004.65 1004.82 1005.17 1005.70 1006.38 1007.19 1008.09 1009.04 1009.99 1010.89 1011.72 1012.44 1013.04 1013.53 1013.92 1014.24 1014.50 1014.75 1015.01 1015.28 1015.58 1015.92 1016.27 1016.63 1017.00 1017.36 1017.71 1018.06 1018.42 1018.79 1019.17 1019.58 1019.99 1020.41 1020.81 1021.15 1021.42 1021.60
1006.23 1005.62 1005.16 1004.85 1004.70 1004.72 1004.90 1005.24 1005.72 1006.35 1007.10 1007.95 1008.87 1009.82 1010.77 1011.68 1012.52 1013.26 1013.89 1014.41 1014.82 1015.14 1015.41 1015.64 1015.86 1016.08 1016.33 1016.60 1016.91 1017.24 1017.59 1017.96 1018.34 1018.73 1019.13 1019.53 1019.94 1020.36 1020.76 1021.15 1021.49 1021.78 1021.99 1022.11
1005.76 1005.31 1005.02 1004.90 1004.95 1005.15 1005.49 1005.97 1006.55 1007.25 1008.03 1008.89 1009.79 1010.71 1011.63 1012.52 1013.33 1014.07 1014.70 1015.22 1015.64 1015.96 1016.21 1016.42 1016.60 1016.78 1016.97 1017.20 1017.47 1017.78 1018.12 1018.50 1018.90 1019.31 1019.74 1020.16 1020.58 1020.98 1021.35 1021.68 1021.96 1022.18 1022.32 1022.37
1005.74 1005.45 1005.33 1005.38 1005.59 1005.94 1006.40 1006.96 1007.61 1008.32 1009.10 1009.92 1010.78 1011.65 1012.52 1013.35 1014.13 1014.84 1015.46 1015.97 1016.38 1016.69 1016.93 1017.11 1017.26 1017.41 1017.57 1017.76 1018.00 1018.29 1018.64 1019.02 1019.43 1019.86 1020.29 1020.72 1021.12 1021.48 1021.80 1022.07 1022.27 1022.41 1022.47 1022.46
1006.18 1006.04 1006.06 1006.24 1006.57 1007.00 1007.53 1008.13 1008.79 1009.49 1010.23 1010.99 1011.78 1012.59 1013.39 1014.16 1014.90 1015.57 1016.16 1016.66 1017.06 1017.37 1017.60 1017.77 1017.90 1018.02 1018.16 1018.34 1018.56 1018.85 1019.18 1019.57 1019.98 1020.41 1020.84 1021.25 1021.61 1021.92 1022.18 1022.37 1022.49 1022.54 1022.53 1022.47
1007.01 1006.99 1007.12 1007.38 1007.77 1008.25 1008.79 1009.39 1010.02 1010.67 1011.34 1012.04 1012.75 1013.48 1014.21 1014.92 1015.61 1016.25 1016.82 1017.31 1017.71 1018.02 1018.25 1018.42 1018.55 1018.67 1018.80 1018.97 1019.19 1019.47 1019.80 1020.18 1020.58 1021.00 1021.41 1021.77 1022.09 1022.34 1022.53 1022.64 1022.68 1022.66 1022.59 1022.47
1008.12 1008.18 1008.37 1008.68 1009.08 1009.56 1010.08 1010.64 1011.21 1011.80 1012.40 1013.01 1013.65 1014.30 1014.97 1015.63 1016.28 1016.89 1017.44 1017.93 1018.33 1018.65 1018.89 1019.08 1019.22 1019.35 1019.49 1019.66 1019.88 1020.15 1020.48 1020.84 1021.23 1021.62 1021.98 1022.31 1022.57 1022.76 1022.87 1022.91 1022.88 1022.80 1022.68 1022.52
1009.37 1009.47 1009.68 1010.00 1010.39 1010.83 1011.31 1011.81 1012.32 1012.84 1013.37 1013.91 1014.47 1015.06 1015.66 1016.28 1016.89 1017.48 1018.03 1018.51 1018.93 1019.26 1019.53 1019.74 1019.91 1020.05 1020.21 1020.39 1020.61 1020.87 1021.18 1021.52 1021.88 1022.22 1022.54 1022.81 1023.01 1023.14 1023.19 1023.17 1023.10 1022.97 1022.81 1022.64
1010.62 1010.74 1010.96 1011.25 1011.61 1012.01 1012.44 1012.88 1013.33 1013.78 1014.24 1014.72 1015.22 1015.75 1016.30 1016.88 1017.45 1018.02 1018.55 1019.04 1019.47 1019.83 1020.12 1020.36 1020.56 1020.73 1020.90 1021.09 1021.31 1021.57 1021.85 1022.15 1022.46 1022.76 1023.02 1023.23 1023.38 1023.45 1023.46 1023.40 1023.29 1023.14 1022.97 1022.79
1011.81 1011.93 1012.13 1012.40 1012.72 1013.08 1013.46 1013.85 1014.23 1014.63 1015.03 1015.45 1015.89 1016.36 1016.87 1017.40 1017.94 1018.48 1019.00 1019.48 1019.92 1020.30 1020.62 1020.89 1021.12 1021.32 1021.52 1021.71 1021.93 1022.16 1022.42 1022.68 1022.94 1023.17 1023.38 1023.53 1023.63 1023.66 1023.63 1023.55 1023.43 1023.29 1023.12 1022.95
1012.88 1013.00 1013.18 1013.43 1013.72 1014.04 1014.37 1014.71 1015.04 1015.38 1015.73 1016.09 1016.47 1016.89 1017.33 1017.81 1018.30 1018.81 1019.31 1019.79 1020.23 1020.63 1020.98 1021.28 1021.54 1021.78 1021.99 1022.20 1022.41 1022.62 1022.84 1023.05 1023.26 1023.44 1023.58 1023.68 1023.73 1023.74 1023.70 1023.62 1023.51 1023.38 1023.24 1023.10
1013.85 1013.96 1014.13 1014.35 1014.61 1014.89 1015.18 1015.47 1015.76 1016.04 1016.32 1016.62 1016.93 1017.28 1017.66 1018.08 1018.52 1018.99 1019.46 1019.92 1020.37 1020.79 1021.17 1021.50 1021.80 1022.07 1022.31 1022.53 1022.74 1022.93 1023.11 1023.28 1023.43 1023.56 1023.65 1023.71 1023.73 1023.71 1023.67 1023.60 1023.52 1023.43 1023.33 1023.23
1014.73 1014.84 1014.99 1015.19 1015.42 1015.66 1015.90 1016.13 1016.36 1016.57 1016.78 1017.01 1017.25 1017.52 1017.82 1018.17 1018.56 1018.98 1019.42 1019.88 1020.33 1020.77 1021.18 1021.57 1021.91 1022.22 1022.49 1022.73 1022.93 1023.11 1023.27 1023.40 1023.50 1023.58 1023.63 1023.65 1023.65 1023.64 1023.60 1023.56 1023.52 1023.47 1023.42 1023.37
1015.55 1015.65 1015.79 1015.95 1016.14 1016.33 1016.51 1016.67 1016.83 1016.96 1017.09 1017.23 1017.39 1017.58 1017.81 1018.09 1018.43 1018.81 1019.23 1019.68 1020.15 1020.62 1021.07 1021.50 1021.90 1022.25 1022.56 1022.82 1023.04 1023.22 1023.36 1023.46 1023.53 1023.57 1023.59 1023.60 1023.59 1023.57 1023.56 1023.55 1023.54 1023.54 1023.54 1023.53
1016.31 1016.40 1016.51 1016.64 1016.77 1016.89 1017.00 1017.08 1017.15 1017.20 1017.24 1017.29 1017.37 1017.48 1017.65 1017.87 1018.17 1018.52 1018.93 1019.39 1019.89 1020.39 1020.89 1021.38 1021.82 1022.23 1022.58 1022.88 1023.12 1023.30 1023.44 1023.52 1023.57 1023.60 1023.60 1023.60 1023.59 1023.59 1023.60 1023.62 1023.65 1023.68 1023.71 1023.73
1017.02 1017.08 1017.16 1017.23 1017.29 1017.34 1017.36 1017.36 1017.33 1017.29 1017.25 1017.22 1017.23 1017.28 1017.40 1017.59 1017.86 1018.20 1018.62 1019.10 1019.63 1020.17 1020.72 1021.26 1021.76 1022.21 1022.61 1022.93 1023.20 1023.39 1023.53 1023.62 1023.67 1023.69 1023.69 1023.69 1023.69 1023.70 1023.73 1023.78 1023.84 1023.90 1023.95 1023.98
1017.64 1017.68 1017.70 1017.71 1017.70 1017.66 1017.60 1017.51 1017.40 1017.29 1017.18 1017.09 1017.05 1017.07 1017.16 1017.34 1017.61 1017.96 1018.39 1018.90 1019.45 1020.03 1020.62 1021.19 1021.73 1022.22 1022.65 1023.00 1023.28 1023.50 1023.65 1023.74 1023.80 1023.82 1023.84 1023.85 1023.87 1023.90 1023.95 1024.01 1024.09 1024.16 1024.21 1024.24
Thickness
5716 5726 5728 5729 5731 5728 5724 5722 5716 5725 5729 5744 5749 5750 5750 5750 5749 5747 5746 5743 5741 5739 5738 5737 5736 5736 5734 5732 5729 5727 5723 5720 5718 5717 5716 5713 5711 5710 5709 5707 5705 5703 5701 5699
5708 5720 5722 5722 5729 5729 5728 5728 5726 5729 5732 5748 5748 5747 5745 5744 5744 5741 5740 5739 5737 5735 5734 5733 5732 5732 5730 5728 5727 5724 5719 5716 5714 5714 5712 5709 5707 5706 5704 5703 5701 5699 5697 5695
5685 5704 5708 5702 5723 5727 5728 5733 5731 5726 5737 5743 5739 5738 5737 5737 5738 5736 5734 5732 5730 5729 5728 5728 5727 5726 5724 5722 5721 5718 5713 5711 5709 5708 5705 5704 5702 5700 5698 5696 5695 5692 5691 5688
5672 5683 5675 5707 5731 5734 5731 5732 5735 5736 5737 5737 5734 5731 5731 5732 5731 5729 5728 5725 5723 5722 5722 5721 5721 5720 5718 5716 5712 5710 5707 5704 5702 5700 5698 5697 5695 5693 5691 5689 5687 5684 5681 5679
5659 5663 5676 5701 5718 5721 5718 5719 5732 5731 5730 5728 5726 5724 5719 5721 5723 5721 5719 5717 5715 5715 5714 5714 5712 5711 5710 5706 5703 5700 5697 5695 5693 5692 5691 5689 5687 5685 5684 5681 5678 5674 5672 5669
5653 5656 5660 5691 5712 5718 5714 5706 5727 5729 5725 5722 5720 5710 5708 5710 5710 5709 5708 5708 5706 5706 5706 5704 5702 5702 5699 5695 5692 5689 5687 5685 5684 5683 5682 5680 5677 5675 5672 5670 5666 5663 5659 5657
5648 5651 5666 5692 5703 5707 5690 5703 5721 5723 5722 5718 5713 5710 5705 5701 5699 5698 5697 5696 5695 5695 5693 5690 5690 5691 5687 5683 5678 5677 5676 5675 5674 5673 5670 5668 5666 5663 5660 5656 5652 5649 5645 5642
5641 5643 5658 5688 5691 5690 5696 5707 5712 5713 5712 5709 5705 5700 5695 5690 5688 5686 5684 5683 5683 5682 5678 5677 5677 5679 5674 5669 5666 5666 5665 5663 5661 5659 5658 5655 5653 5650 5647 5643 5639 5634 5630 5626
5645 5652 5668 5677 5681 5690 5695 5698 5701 5702 5702 5701 5696 5689 5683 5678 5675 5672 5671 5670 5669 5669 5666 5664 5663 5664 5660 5656 5656 5655 5653 5649 5647 5645 5642 5640 5638 5635 5631 5628 5625 5620 5616 5611
5644 5655 5664 5671 5677 5684 5690 5692 5693 5693 5691 5690 5685 5679 5673 5667 5662 5659 5657 5656 5656 5656 5654 5650 5648 5648 5645 5644 5644 5643 5639 5635 5633 5630 5627 5624 5622 5619 5616 5612 5609 5605 5601 5596
5642 5651 5657 5664 5669 5675 5680 5682 5682 5679 5679 5678 5675 5668 5664 5657 5652 5649 5646 5644 5644 5643 5640 5636 5634 5633 5632 5631 5632 5629 5625 5622 5618 5616 5612 5608 5605 5600 5598 5594 5592 5589 5584 5580
5640 5647 5649 5653 5661 5668 5669 5670 5670 5668 5664 5662 5662 5657 5652 5646 5642 5639 5636 5634 5632 5629 5627 5624 5622 5620 5619 5619 5619 5616 5612 5608 5605 5601 5598 5594 5590 5584 5580 5577 5574 5571 5568 5564
5643 5647 5648 5650 5653 5657 5658 5659 5658 5655 5652 5649 5647 5645 5641 5635 5632 5629 5626 5623 5620 5617 5615 5613 5611 5609 5608 5607 5606 5603 5598 5595 5591 5588 5585 5580 5576 5572 5566 5561 5558 5554 5551 5547
5642 5643 5642 5643 5644 5646 5647 5647 5646 5643 5641 5639 5636 5633 5630 5626 5622 5619 5616 5613 5610 5607 5605 5603 5601 5597 5596 5595 5593 5590 5586 5583 5579 5574 5570 5566 5561 5556 5552 5547 5543 5537 5533 5530
5637 5639 5637 5637 5636 5636 5637 5637 5635 5631 5629 5626 5624 5622 5620 5616 5612 5608 5605 5603 5600 5597 5594 5592 5590 5586 5584 5583 5581 5577 5573 5569 5564 5559 5555 5550 5545 5540 5535 5530 5525 5520 5516 5513
5630 5632 5631 5630 5628 5627 5628 5628 5626 5621 5619 5616 5614 5611 5609 5606 5602 5598 5595 5594 5591 5586 5583 5580 5577 5574 5572 5570 5567 5563 5559 5556 5551 5545 5540 5534 5529 5524 5518 5512 5507 5503 5498 5494
5624 5622 5622 5621 5620 5619 5619 5618 5617 5614 5611 5608 5605 5603 5600 5596 5592 5588 5585 5583 5580 5576 5572 5569 5566 5563 5561 5558 5554 5550 5545 5541 5536 5530 5524 5518 5513 5507 5501 5496 5491 5486 5480 5476
5621 5619 5618 5617 5615 5613 5610 5610 5608 5606 5603 5601 5599 5596 5592 5588 5584 5579 5575 5572 5569 5564 5560 5558 5555 5552 5549 5545 5541 5536 5531 5525 5519 5514 5507 5502 5496 5490 5485 5480 5475 5470 5465 5460
5614 5612 5611 5610 5608 5606 5604 5602 5600 5598 5596 5594 5590 5586 5583 5579 5575 5570 5566 5563 5559 5554 5549 5547 5544 5540 5536 5532 5528 5523 5517 5511 5504 5497 5492 5486 5480 5475 5470 5465 5460 5456 5451 5447
5605 5604 5603 5601 5600 5599 5596 5593 5591 5589 5586 5584 5580 5576 5572 5568 5565 5561 5557 5551 5547 5543 5539 5536 5532 5527 5523 5518 5514 5509 5503 5496 5490 5483 5477 5472 5466 5461 5456 5451 5447 5442 5438 5434
5596 5596 5594 5593 5590 5589 5587 5585 5583 5579 5576 5574 5571 5567 5562 5558 5554 5550 5546 5540 5534 5531 5528 5524 5519 5515 5510 5505 5500 5494 5488 5482 5476 5470 5464 5458 5453 5449 5444 5440 5435 5431 5427 5423
5587 5586 5585 5583 5581 5578 5576 5575 5573 5571 5567 5564 5561 5557 5552 5547 5543 5538 5534 5530 5525 5521 5517 5512 5508 5503 5498 5492 5487 5481 5475 5469 5463 5457 5452 5447 5442 5438 5434 5429 5425 5421 5417 5413
5578 5577 5575 5573 5570 5567 5565 5564 5562 5560 5557 5554 5550 5546 5542 5537 5532 5528 5523 5518 5514 5509 5505 5501 5496 5491 5485 5480 5474 5468 5463 5457 5451 5446 5441 5436 5432 5428 5424 5419 5415 5412 5408 5404
5568 5567 5564 5562 5561 5559 5555 5552 5550 5549 5546 5543 5539 5536 5531 5526 5521 5517 5513 5508 5503 5498 5493 5488 5484 5479 5473 5467 5461 5456 5450 5445 5440 5435 5431 5426 5422 5418 5414 5410 5406 5402 5399 5396
5558 5557 5555 5553 5550 5547 5544 5542 5540 5537 5534 5531 5527 5523 5520 5516 5512 5506 5502 5497 5491 5487 5481 5476 5472 5467 5461 5455 5449 5444 5439 5434 5430 5425 5421 5417 5413 5409 5405 5401 5397 5394 5391 5388
5548 5545 5543 5541 5539 5536 5534 5532 5529 5526 5523 5519 5515 5511 5507 5504 5500 5495 5490 5485 5480 5475 5470 5464 5459 5454 5449 5444 5439 5434 5429 5425 5420 5416 5411 5408 5404 5400 5396 5393 5390 5387 5384 5382
5537 5535 5533 5531 5528 5527 5525 5522 5519 5515 5512 5509 5505 5500 5496 5492 5487 5483 5478 5473 5468 5463 5458 5453 5449 5444 5439 5434 5430 5425 5420 5416 5412 5408 5404 5400 5396 5392 5389 5386 5383 5380 5378 5376